Simultaneous Nadir Overpasses (SNOs) Predictions

Prediction of SNOs between GOES-16 and METOP-C Satellite Orbit:

Table of predicted SNOs for the next 14.0 days since TLE Epoch: 2/22/2020
Index Date Time (GOES-16) GOES-16 Lat,Lon METOP-C Lat,Lon Distance(km) Time Diff (sec)
1 02/23/2020 14:31:49 -0.02, -75.16 -0.11, -74.81 39.72 80
2 02/25/2020 02:48:07 0.02, -75.15 -0.93, -79.40 484.37 80
3 02/26/2020 02:30:06 0.02, -75.15 0.17, -74.40 85.67 80
4 02/27/2020 14:46:19 -0.02, -75.17 0.80, -78.96 431.63 80
5 02/28/2020 14:28:18 -0.02, -75.18 -0.29, -73.96 138.63 80
6 03/01/2020 02:44:37 0.03, -75.17 -0.73, -78.55 384.56 80
7 03/02/2020 02:26:36 0.03, -75.18 0.37, -73.54 185.86 80
8 03/03/2020 14:42:48 -0.04, -75.20 0.62, -78.11 331.15 80
9 03/04/2020 14:24:48 -0.03, -75.21 -0.47, -73.10 239.34 80
10 03/06/2020 02:41:06 0.04, -75.21 -0.53, -77.69 283.48 80




NCC Satellite Simultaneous Nadir Overpasses (SNOs) Prediction Service
